Погода в Тлумаче

Украина / Ивано-Франковская область     48°51′11″N   25°00′47″E
темп.,
°C
ветер,
м/с
пор.,
м/с
влажн.,
%
обл.,
%
осадки,
мм/ч
давл.,
гПа
погр.,
м
6 мая, чт
чт600:00+11юз367484 0.0 100391
03:00+6сз51094100 1.1 1007431
06:00+6сз31192100 1.5 1009664
09:00+7зсз498598 1.6 1013861
12:00+12сз475365 0.1 10131648
15:00+13ссв245186 1.0 10121195
18:00+13з695653 0.6 10121231
21:00+8юз34668 0.6 101350
7 мая, пт
пт700:00+6ююв22685 0.0 101312
03:00+5ююв347539 0.0 101362
06:00+6юв3773100 0.0 1011159
09:00+10ююв5768100 0.0 1009235
12:00+14ю4770100 0.0 1007908
15:00+15юз4664100 0.3 10061176
18:00+12юз4577100 1.5 1007549
21:00+10зюз2384100 1.6 100844
8 мая, сб
сб800:00+8сз91491100 0.4 1011781
03:00+5сз71381100 0.6 1014895
06:00+4зсз713764 0.2 1016874
09:00+6зсз8126654 0.2 10191311
12:00+7сз7106211 0.0 10211340
15:00+11сз794713 0.0 10202052
18:00+10ссз69573 0.0 10201483
21:00+5зсз11830 0.0 102310
9 мая, вс
вс900:00+3зюз22865 0.0 102415
03:00+2юз118570 0.0 102510
06:00+2ююз1184100 0.0 102610
09:00+9ююв236518 0.0 1026325
12:00+14юв335043 0.0 10251290
15:00+16вюв334794 0.0 10241476
18:00+15вюв455533 0.0 10241132
21:00+9вюв4127332 0.0 1025218
10 мая, пн
пн1000:00+8юв512725 0.0 1024276
03:00+6юв38825 0.0 1024146
06:00+4юв36885 0.0 1025117
09:00+10юв57700 0.0 1024345
12:00+16юв79564 0.0 1023819
15:00+19юв810520 0.0 1022924
18:00+17юв913620 0.0 1021705
21:00+13юв715620 0.0 1022452